Weather History for Riverside, CA

Change the Weather History Date:

Saturday, November 5, 2011

  Actual Average Record
Temperature  
Mean Temperature 51 °F 63 °F  
Max Temperature 62 °F 77 °F 95 °F (1988)
Min Temperature 40 °F 50 °F 31 °F (1922)
Degree Days  
Heating Degree Days 14 3  
Month to date heating degree days 29 15  
Since 1 July heating degree days 54 50  
Cooling Degree Days 0 2  
Month to date cooling degree days 3 10  
Year to date cooling degree days 1711 1739  
Growing Degree Days 1 (Base 50)    
Moisture  
Dew Point 39 °F    
Average Humidity 64    
Maximum Humidity 92    
Minimum Humidity 35    
Precipitation  
Precipitation 0.00 in 0.03 in 0.70 in (1905)
Month to date precipitation 0.33 0.16  
Year to date precipitation 5.44 10.03  
Since 1 July precipitation 1.24 0.84  
Snow  
Snow 0.00 in - - ()
Month to date snowfall 0.0  
Year to date snowfall 0.0  
Since 1 July snowfall 0.0  
Snow Depth 0.00 in    
Sea Level Pressure  
Sea Level Pressure 29.95 in    
Wind  
Wind Speed 3 mph (WNW)    
Max Wind Speed 12 mph    
Max Gust Speed 15 mph    
Visibility 9 miles    
Events      
T = Trace of Precipitation, MM = Missing Value Source: NWS Daily Summary

Daily Weather History Graph

Daily Weather History Graph

Search for Another Location

Airport:

Trip Planner

Search our weather history database for the weather conditions in past years. The results will help you decide how hot, cold, wet, or windy it might be!

Date:

Astronomy

Nov. 05, 2011 Rise Set
Actual Time 7:12 AM PDT 5:53 PM PDT
Civil Twilight 6:46 AM PDT 6:19 PM PDT
Nautical Twilight 6:16 AM PDT 6:49 PM PDT
Astronomical Twilight 5:47 AM PDT 7:18 PM PDT
Moon 3:03 PM PDT (11/5) 2:38 AM PDT (11/5)
Length of Visible Light 11h 32m
Length of Day
10h 40m
Waxing Gibbous, 79% of the Moon is Illuminated
Nov 5
Waxing Gibbous
Nov 10
Full
Nov 18
Last Quarter
Nov 24
New
Dec 2
First Quarter

Hourly Weather History & Observations

Time (PDT) Temp. Windchill Dew Point Humidity Pressure Visibility Wind Dir Wind Speed Gust Speed Precip Events Conditions
12:53 AM 46.0 °F - 43.0 °F 89% 29.81 in 10.0 mi Calm Calm - N/A   Clear
2:53 AM 44.1 °F - 41.0 °F 89% 29.84 in 7.0 mi Calm Calm - N/A   Clear
3:53 AM 44.1 °F 40.8 °F 41.0 °F 89% 29.86 in 5.0 mi NE 5.8 mph - N/A   Clear
5:53 AM 42.1 °F - 39.0 °F 89% 29.91 in 9.0 mi Calm Calm - N/A   Clear
6:53 AM 42.1 °F - 39.0 °F 89% 29.92 in 9.0 mi Calm Calm - N/A   Clear
7:31 AM 41.0 °F 39.0 °F 39.2 °F 93% 29.96 in 2.5 mi ENE 3.5 mph - N/A   Clear
7:41 AM 42.8 °F 41.1 °F 39.2 °F 87% 29.96 in 4.0 mi ENE 3.5 mph - N/A   Clear
7:53 AM 44.1 °F 41.5 °F 41.0 °F 89% 29.95 in 4.0 mi NE 4.6 mph - N/A   Clear
9:53 AM 51.1 °F - 43.0 °F 74% 29.98 in 10.0 mi East 3.5 mph - N/A   Clear
10:53 AM 54.0 °F - 43.0 °F 66% 30.00 in 10.0 mi Calm Calm - N/A   Clear
12:53 PM 57.9 °F - 37.0 °F 46% 29.98 in 10.0 mi WSW 6.9 mph - N/A   Scattered Clouds
1:53 PM 60.1 °F - 39.0 °F 46% 29.95 in 10.0 mi WSW 4.6 mph - N/A   Scattered Clouds
2:53 PM 60.1 °F - 35.1 °F 39% 29.95 in 10.0 mi WSW 3.5 mph - N/A   Mostly Cloudy
3:53 PM 61.0 °F - 32.0 °F 34% 29.95 in 10.0 mi West 6.9 mph - N/A   Scattered Clouds
4:53 PM 59.0 °F - 33.1 °F 38% 29.95 in 10.0 mi West 8.1 mph - N/A   Scattered Clouds
5:53 PM 55.9 °F - 34.0 °F 44% 29.96 in 10.0 mi West 6.9 mph - N/A   Scattered Clouds
6:53 PM 54.0 °F - 37.0 °F 53% 29.97 in 10.0 mi Variable 3.5 mph - N/A   Partly Cloudy
7:53 PM 50.0 °F - 39.0 °F 66% 29.99 in 10.0 mi WSW 4.6 mph - N/A   Clear
8:53 PM 51.1 °F - 39.0 °F 63% 30.00 in 10.0 mi Calm Calm - N/A   Clear
9:53 PM 50.0 °F - 39.0 °F 66% 30.01 in 10.0 mi Calm Calm - N/A   Clear
10:53 PM 48.0 °F - 39.0 °F 71% 30.02 in 10.0 mi Calm Calm - N/A   Clear
11:53 PM 46.0 °F - 39.9 °F 79% 30.01 in 10.0 mi Calm Calm - N/A   Clear